Location: Vihti�l�
(61.3833°N, 23.0667°E)
Time: 04:11:21
(UTC+00:00)

CENTAUR R/B - Pass Details

Date: 29 November 2020
Orbit: 750 x 1438 km, 63.4° (Epoch: 11 January)

Event Time Altitude Azimuth Distance (km) Brightness Sun altitude
Exits shadow 02:14:23 26° 174° (S) 2,417 4.4 -33.2°
Drops below altitude 10° 02:18:06 10° 161° (SSE) 3,505 5.4 -32.8°
Sets 02:21:14 0° 156° (SSE) 4,509 6.1 -32.4°
